Time,TemperatureF,DewpointF,PressureIn,WindDirection,WindDirectionDegrees,WindSpeedMPH,WindSpeedGustMPH,Humidity,HourlyPrecipIn,Conditions,Clouds,dailyrainin,SolarRadiationWatts/m^2,SoftwareType,DateUTC
2013-06-03 00:00:00,57.2,51.1,29.64,North,-999,15.0,21.0,80,0.00,,,0.00,0.00,VWS V14.01,2013-06-03 06:00:00,
2013-06-03 00:05:00,57.2,51.4,29.65,North,-999,10.0,21.0,81,0.00,,,0.00,0.00,VWS V14.01,2013-06-03 06:05:00,
2013-06-03 00:10:00,57.1,51.3,29.65,North,-999,14.0,18.0,81,0.00,,,0.00,0.00,VWS V14.01,2013-06-03 06:10:00,
2013-06-03 00:15:00,56.9,51.1,29.65,North,-999,11.0,18.0,81,0.00,,,0.00,0.00,VWS V14.01,2013-06-03 06:15:00,
2013-06-03 00:20:00,56.7,51.3,29.66,North,-999,6.0,12.0,82,0.00,,,0.00,0.00,VWS V14.01,2013-06-03 06:20:00,
2013-06-03 00:25:00,56.5,51.4,29.65,North,-999,13.0,15.0,83,0.00,,,0.00,0.00,VWS V14.01,2013-06-03 06:25:00,
2013-06-03 00:30:00,56.1,51.3,29.65,North,-999,8.0,15.0,84,0.00,,,0.00,0.00,VWS V14.01,2013-06-03 06:30:00,
2013-06-03 00:35:00,55.7,51.3,29.65,North,-999,15.0,15.0,85,0.00,,,0.00,0.00,VWS V14.01,2013-06-03 06:35:00,
2013-06-03 00:40:00,55.3,51.2,29.65,North,-999,26.0,26.0,86,0.00,,,0.00,0.00,VWS V14.01,2013-06-03 06:40:00,
2013-06-03 00:45:00,55.0,50.9,29.65,North,-999,25.0,31.0,86,0.00,,,0.00,0.00,VWS V14.01,2013-06-03 06:45:00,
2013-06-03 00:50:00,54.7,49.7,29.65,North,-999,21.0,26.0,83,0.00,,,0.00,0.00,VWS V14.01,2013-06-03 06:50:00,
2013-06-03 00:55:00,54.4,49.0,29.65,North,-999,21.0,33.0,82,0.00,,,0.00,0.00,VWS V14.01,2013-06-03 06:55:00,
2013-06-03 01:00:00,54.1,49.1,29.65,North,-999,19.0,31.0,83,0.00,,,0.00,0.00,VWS V14.01,2013-06-03 07:00:00,
2013-06-03 01:05:00,53.6,47.3,29.64,North,-999,21.0,33.0,79,0.00,,,0.00,0.00,VWS V14.01,2013-06-03 07:05:00,
2013-06-03 01:10:00,53.1,46.1,29.65,North,-999,22.0,32.0,77,0.00,,,0.00,0.00,VWS V14.01,2013-06-03 07:10:00,
2013-06-03 01:15:00,52.7,45.4,29.65,North,-999,27.0,34.0,76,0.00,,,0.00,0.00,VWS V14.01,2013-06-03 07:15:00,
2013-06-03 01:20:00,52.5,45.2,29.65,North,-999,20.0,34.0,76,0.00,,,0.00,0.00,VWS V14.01,2013-06-03 07:20:00,
2013-06-03 01:25:00,51.9,45.3,29.65,North,-999,25.0,34.0,78,0.00,,,0.00,0.00,VWS V14.01,2013-06-03 07:25:00,
2013-06-03 01:30:00,51.6,45.3,29.65,North,-999,20.0,32.0,79,0.00,,,0.00,0.00,VWS V14.01,2013-06-03 07:30:00,
2013-06-03 01:35:00,51.5,44.9,29.65,North,-999,14.0,32.0,78,0.00,,,0.00,0.00,VWS V14.01,2013-06-03 07:35:00,
2013-06-03 01:40:00,51.6,45.0,29.66,North,-999,13.0,26.0,78,0.00,,,0.00,0.00,VWS V14.01,2013-06-03 07:40:00,
2013-06-03 01:45:00,51.5,44.9,29.66,North,-999,24.0,26.0,78,0.00,,,0.00,0.00,VWS V14.01,2013-06-03 07:45:00,
2013-06-03 01:50:00,50.9,45.0,29.66,North,-999,26.0,38.0,80,0.00,,,0.00,0.00,VWS V14.01,2013-06-03 07:50:00,
2013-06-03 01:55:00,50.3,44.7,29.66,North,-999,32.0,38.0,81,0.00,,,0.00,0.00,VWS V14.01,2013-06-03 07:55:00,
2013-06-03 02:00:00,50.0,45.0,29.65,North,-999,17.0,28.0,83,0.00,,,0.00,0.00,VWS V14.01,2013-06-03 08:00:00,
2013-06-03 02:05:00,49.9,44.6,29.64,North,-999,18.0,35.0,82,0.00,,,0.00,0.00,VWS V14.01,2013-06-03 08:05:00,
2013-06-03 02:10:00,50.0,44.1,29.65,North,-999,16.0,35.0,80,0.00,,,0.00,0.00,VWS V14.01,2013-06-03 08:10:00,
2013-06-03 02:15:00,50.0,43.8,29.65,North,-999,19.0,35.0,79,0.00,,,0.00,0.00,VWS V14.01,2013-06-03 08:15:00,
2013-06-03 02:20:00,49.9,43.3,29.64,North,-999,28.0,30.0,78,0.00,,,0.00,0.00,VWS V14.01,2013-06-03 08:20:00,
2013-06-03 02:25:00,49.7,43.1,29.64,North,-999,24.0,33.0,78,0.00,,,0.00,0.00,VWS V14.01,2013-06-03 08:25:00,
2013-06-03 02:30:00,49.4,43.2,29.65,North,-999,22.0,29.0,79,0.00,,,0.00,0.00,VWS V14.01,2013-06-03 08:30:00,
2013-06-03 02:35:00,49.2,43.0,29.64,North,-999,22.0,34.0,79,0.00,,,0.00,0.00,VWS V14.01,2013-06-03 08:35:00,
2013-06-03 02:40:00,49.0,42.8,29.64,North,-999,19.0,31.0,79,0.00,,,0.00,0.00,VWS V14.01,2013-06-03 08:40:00,
2013-06-03 02:45:00,49.0,42.5,29.65,North,-999,16.0,32.0,78,0.00,,,0.00,0.00,VWS V14.01,2013-06-03 08:45:00,
2013-06-03 02:50:00,49.1,42.5,29.65,North,-999,24.0,25.0,78,0.00,,,0.00,0.00,VWS V14.01,2013-06-03 08:50:00,
2013-06-03 02:55:00,49.0,42.1,29.66,North,-999,17.0,27.0,77,0.00,,,0.00,0.00,VWS V14.01,2013-06-03 08:55:00,
2013-06-03 03:00:00,49.1,41.9,29.66,North,-999,12.0,21.0,76,0.00,,,0.00,0.00,VWS V14.01,2013-06-03 09:00:00,
2013-06-03 03:05:00,49.3,41.7,29.65,North,-999,17.0,27.0,75,0.00,,,0.00,0.00,VWS V14.01,2013-06-03 09:05:00,
2013-06-03 03:10:00,49.4,41.5,29.65,North,-999,20.0,29.0,74,0.00,,,0.00,0.00,VWS V14.01,2013-06-03 09:10:00,
2013-06-03 03:15:00,49.5,41.2,29.66,North,-999,16.0,29.0,73,0.00,,,0.00,0.00,VWS V14.01,2013-06-03 09:15:00,
2013-06-03 03:20:00,49.5,41.2,29.66,North,-999,21.0,21.0,73,0.00,,,0.00,0.00,VWS V14.01,2013-06-03 09:20:00,
2013-06-03 03:25:00,49.3,41.4,29.67,North,-999,14.0,25.0,74,0.00,,,0.00,0.00,VWS V14.01,2013-06-03 09:25:00,
2013-06-03 03:30:00,49.2,41.6,29.67,North,-999,19.0,24.0,75,0.00,,,0.00,0.00,VWS V14.01,2013-06-03 09:30:00,
2013-06-03 03:35:00,49.3,41.4,29.68,North,-999,5.0,24.0,74,0.00,,,0.00,0.00,VWS V14.01,2013-06-03 09:35:00,
2013-06-03 03:40:00,49.3,41.7,29.68,North,-999,6.0,13.0,75,0.00,,,0.00,0.00,VWS V14.01,2013-06-03 09:40:00,
2013-06-03 03:45:00,49.6,41.7,29.67,North,-999,16.0,19.0,74,0.00,,,0.00,0.00,VWS V14.01,2013-06-03 09:45:00,
2013-06-03 03:50:00,49.9,41.6,29.67,North,-999,9.0,11.0,73,0.00,,,0.00,0.00,VWS V14.01,2013-06-03 09:50:00,
2013-06-03 03:55:00,50.0,41.7,29.68,North,-999,5.0,12.0,73,0.00,,,0.00,0.00,VWS V14.01,2013-06-03 09:55:00,
2013-06-03 04:00:00,50.0,41.7,29.67,North,-999,0.0,7.0,73,0.00,,,0.00,0.00,VWS V14.01,2013-06-03 10:00:00,
2013-06-03 04:05:00,50.0,41.3,29.68,North,-999,7.0,10.0,72,0.00,,,0.00,0.00,VWS V14.01,2013-06-03 10:05:00,
2013-06-03 04:10:00,50.0,41.0,29.68,North,-999,3.0,10.0,71,0.00,,,0.00,0.00,VWS V14.01,2013-06-03 10:10:00,
2013-06-03 04:15:00,49.8,40.8,29.68,North,-999,18.0,19.0,71,0.00,,,0.00,0.00,VWS V14.01,2013-06-03 10:15:00,
2013-06-03 04:20:00,49.9,40.5,29.68,North,-999,9.0,19.0,70,0.00,,,0.00,0.00,VWS V14.01,2013-06-03 10:20:00,
2013-06-03 04:25:00,49.6,40.6,29.68,North,-999,5.0,19.0,71,0.00,,,0.00,0.00,VWS V14.01,2013-06-03 10:25:00,
2013-06-03 04:30:00,49.6,40.2,29.68,North,-999,10.0,14.0,70,0.00,,,0.00,0.00,VWS V14.01,2013-06-03 10:30:00,
2013-06-03 04:35:00,49.4,40.0,29.68,North,-999,8.0,14.0,70,0.00,,,0.00,0.00,VWS V14.01,2013-06-03 10:35:00,
2013-06-03 04:40:00,49.1,39.8,29.69,North,-999,10.0,13.0,70,0.00,,,0.00,0.00,VWS V14.01,2013-06-03 10:40:00,
2013-06-03 04:45:00,49.0,40.0,29.69,North,-999,10.0,15.0,71,0.00,,,0.00,0.00,VWS V14.01,2013-06-03 10:45:00,
2013-06-03 04:50:00,49.1,39.8,29.69,North,-999,8.0,15.0,70,0.00,,,0.00,0.00,VWS V14.01,2013-06-03 10:50:00,
2013-06-03 04:55:00,49.4,39.7,29.69,North,-999,8.0,17.0,69,0.00,,,0.00,0.00,VWS V14.01,2013-06-03 10:55:00,
2013-06-03 04:59:00,49.0,39.7,29.69,North,-999,11.0,14.0,70,0.00,,,0.00,0.00,VWS V14.01,2013-06-03 10:59:00,
2013-06-03 05:04:00,48.7,39.7,29.69,North,-999,9.0,14.0,71,0.00,,,0.00,0.00,VWS V14.01,2013-06-03 11:04:00,
2013-06-03 05:09:00,48.7,39.7,29.69,North,-999,5.0,14.0,71,0.00,,,0.00,0.00,VWS V14.01,2013-06-03 11:09:00,
2013-06-03 05:14:00,48.5,39.5,29.69,North,-999,5.0,14.0,71,0.00,,,0.00,0.00,VWS V14.01,2013-06-03 11:14:00,
2013-06-03 05:19:00,48.3,39.7,29.69,North,-999,6.0,9.0,72,0.00,,,0.00,0.00,VWS V14.01,2013-06-03 11:19:00,
2013-06-03 05:24:00,48.1,39.5,29.69,North,-999,0.0,9.0,72,0.00,,,0.00,0.00,VWS V14.01,2013-06-03 11:24:00,
2013-06-03 05:29:00,47.9,39.3,29.70,North,-999,3.0,5.0,72,0.00,,,0.00,0.00,VWS V14.01,2013-06-03 11:29:00,
2013-06-03 05:34:00,47.7,39.1,29.70,North,-999,5.0,6.0,72,0.00,,,0.00,0.00,VWS V14.01,2013-06-03 11:34:00,
2013-06-03 05:39:00,47.5,39.3,29.70,North,-999,0.0,0.0,73,0.00,,,0.00,5.00,VWS V14.01,2013-06-03 11:39:00,
2013-06-03 05:44:00,47.2,39.3,29.70,North,-999,0.0,0.0,74,0.00,,,0.00,9.00,VWS V14.01,2013-06-03 11:44:00,
2013-06-03 05:49:00,47.1,39.2,29.70,North,-999,0.0,0.0,74,0.00,,,0.00,11.00,VWS V14.01,2013-06-03 11:49:00,
2013-06-03 05:54:00,47.3,39.5,29.70,North,-999,0.0,0.0,74,0.00,,,0.00,12.00,VWS V14.01,2013-06-03 11:54:00,
2013-06-03 05:59:00,47.4,39.5,29.71,North,-999,0.0,0.0,74,0.00,,,0.00,14.00,VWS V14.01,2013-06-03 11:59:00,
2013-06-03 06:04:00,47.7,39.5,29.71,North,-999,0.0,0.0,73,0.00,,,0.00,14.00,VWS V14.01,2013-06-03 12:04:00,
2013-06-03 06:09:00,48.0,39.4,29.70,North,-999,0.0,0.0,72,0.00,,,0.00,16.00,VWS V14.01,2013-06-03 12:09:00,
2013-06-03 06:14:00,48.3,39.7,29.70,North,-999,0.0,5.0,72,0.00,,,0.00,18.00,VWS V14.01,2013-06-03 12:14:00,
2013-06-03 06:19:00,48.6,39.3,29.71,North,-999,5.0,10.0,70,0.00,,,0.00,18.00,VWS V14.01,2013-06-03 12:19:00,
2013-06-03 06:24:00,50.4,37.5,29.71,North,-999,10.0,17.0,61,0.00,,,0.00,19.00,VWS V14.01,2013-06-03 12:24:00,
2013-06-03 06:29:00,52.7,35.1,29.70,North,-999,6.0,18.0,51,0.00,,,0.00,19.00,VWS V14.01,2013-06-03 12:29:00,
2013-06-03 06:34:00,53.3,36.6,29.70,North,-999,14.0,22.0,53,0.00,,,0.00,21.00,VWS V14.01,2013-06-03 12:34:00,
2013-06-03 06:39:00,52.4,38.1,29.70,North,-999,15.0,16.0,58,0.00,,,0.00,21.00,VWS V14.01,2013-06-03 12:39:00,
2013-06-03 06:44:00,52.5,35.9,29.69,North,-999,14.0,31.0,53,0.00,,,0.00,23.00,VWS V14.01,2013-06-03 12:44:00,
2013-06-03 06:49:00,52.6,36.9,29.69,North,-999,16.0,18.0,55,0.00,,,0.00,23.00,VWS V14.01,2013-06-03 12:49:00,
2013-06-03 06:54:00,52.6,35.0,29.69,North,-999,19.0,26.0,51,0.00,,,0.00,23.00,VWS V14.01,2013-06-03 12:54:00,
2013-06-03 06:59:00,54.0,33.7,29.68,North,-999,26.0,31.0,46,0.00,,,0.00,25.00,VWS V14.01,2013-06-03 12:59:00,
2013-06-03 07:04:00,54.6,33.7,29.68,North,-999,23.0,35.0,45,0.00,,,0.00,25.00,VWS V14.01,2013-06-03 13:04:00,
2013-06-03 07:09:00,54.7,33.2,29.68,North,-999,30.0,31.0,44,0.00,,,0.00,25.00,VWS V14.01,2013-06-03 13:09:00,
2013-06-03 07:14:00,54.9,33.4,29.69,North,-999,22.0,31.0,44,0.00,,,0.00,26.00,VWS V14.01,2013-06-03 13:14:00,
2013-06-03 07:19:00,55.1,33.6,29.69,North,-999,22.0,29.0,44,0.00,,,0.00,32.00,VWS V14.01,2013-06-03 13:19:00,
2013-06-03 07:24:00,55.4,33.9,29.69,North,-999,28.0,33.0,44,0.00,,,0.00,42.00,VWS V14.01,2013-06-03 13:24:00,
2013-06-03 07:29:00,55.6,33.5,29.69,North,-999,26.0,33.0,43,0.00,,,0.00,58.00,VWS V14.01,2013-06-03 13:29:00,
2013-06-03 07:34:00,55.8,33.7,29.69,North,-999,25.0,33.0,43,0.00,,,0.00,91.00,VWS V14.01,2013-06-03 13:34:00,
2013-06-03 07:39:00,56.0,32.7,29.69,North,-999,22.0,28.0,41,0.00,,,0.00,137.00,VWS V14.01,2013-06-03 13:39:00,
2013-06-03 07:44:00,56.3,32.9,29.69,North,-999,27.0,32.0,41,0.00,,,0.00,199.00,VWS V14.01,2013-06-03 13:44:00,
2013-06-03 07:49:00,56.4,33.0,29.69,North,-999,28.0,29.0,41,0.00,,,0.00,272.00,VWS V14.01,2013-06-03 13:49:00,
2013-06-03 07:54:00,56.7,33.3,29.69,North,-999,31.0,31.0,41,0.00,,,0.00,323.00,VWS V14.01,2013-06-03 13:54:00,
2013-06-03 07:59:00,56.9,32.8,29.70,North,-999,27.0,32.0,40,0.00,,,0.00,371.00,VWS V14.01,2013-06-03 13:59:00,
2013-06-03 08:04:00,57.1,31.8,29.70,North,-999,22.0,33.0,38,0.00,,,0.00,392.00,VWS V14.01,2013-06-03 14:04:00,
2013-06-03 08:09:00,57.3,32.6,29.70,North,-999,24.0,38.0,39,0.00,,,0.00,410.00,VWS V14.01,2013-06-03 14:09:00,
2013-06-03 08:14:00,57.4,32.7,29.70,North,-999,23.0,38.0,39,0.00,,,0.00,424.00,VWS V14.01,2013-06-03 14:14:00,
2013-06-03 08:19:00,57.7,32.3,29.70,North,-999,23.0,35.0,38,0.00,,,0.00,443.00,VWS V14.01,2013-06-03 14:19:00,
2013-06-03 08:24:00,57.8,32.4,29.70,North,-999,19.0,37.0,38,0.00,,,0.00,459.00,VWS V14.01,2013-06-03 14:24:00,
2013-06-03 08:29:00,57.9,32.5,29.70,North,-999,28.0,28.0,38,0.00,,,0.00,471.00,VWS V14.01,2013-06-03 14:29:00,
2013-06-03 08:34:00,57.8,33.0,29.70,North,-999,21.0,29.0,39,0.00,,,0.00,487.00,VWS V14.01,2013-06-03 14:34:00,
2013-06-03 08:39:00,58.1,32.0,29.70,North,-999,20.0,22.0,37,0.00,,,0.00,501.00,VWS V14.01,2013-06-03 14:39:00,
2013-06-03 08:44:00,58.3,32.8,29.70,North,-999,23.0,28.0,38,0.00,,,0.00,517.00,VWS V14.01,2013-06-03 14:44:00,
2013-06-03 08:49:00,58.5,32.3,29.71,North,-999,20.0,23.0,37,0.00,,,0.00,533.00,VWS V14.01,2013-06-03 14:49:00,
2013-06-03 08:54:00,58.7,32.5,29.71,North,-999,15.0,26.0,37,0.00,,,0.00,541.00,VWS V14.01,2013-06-03 14:54:00,
2013-06-03 08:59:00,58.7,32.5,29.72,North,-999,12.0,15.0,37,0.00,,,0.00,555.00,VWS V14.01,2013-06-03 14:59:00,
2013-06-03 09:04:00,58.8,32.6,29.71,North,-999,12.0,16.0,37,0.00,,,0.00,570.00,VWS V14.01,2013-06-03 15:04:00,
2013-06-03 09:09:00,59.0,33.5,29.72,North,-999,14.0,17.0,38,0.00,,,0.00,585.00,VWS V14.01,2013-06-03 15:09:00,
2013-06-03 09:14:00,58.8,32.6,29.72,North,-999,13.0,21.0,37,0.00,,,0.00,605.00,VWS V14.01,2013-06-03 15:14:00,
2013-06-03 09:19:00,58.9,33.4,29.72,North,-999,13.0,18.0,38,0.00,,,0.00,622.00,VWS V14.01,2013-06-03 15:19:00,
2013-06-03 09:24:00,58.8,32.6,29.72,North,-999,13.0,20.0,37,0.00,,,0.00,635.00,VWS V14.01,2013-06-03 15:24:00,
2013-06-03 09:29:00,59.0,34.1,29.72,North,-999,12.0,18.0,39,0.00,,,0.00,643.00,VWS V14.01,2013-06-03 15:29:00,
2013-06-03 09:34:00,59.2,34.3,29.73,North,-999,12.0,18.0,39,0.00,,,0.00,654.00,VWS V14.01,2013-06-03 15:34:00,
2013-06-03 09:39:00,59.3,33.7,29.73,North,-999,13.0,13.0,38,0.00,,,0.00,670.00,VWS V14.01,2013-06-03 15:39:00,
2013-06-03 09:44:00,59.3,33.0,29.73,North,-999,6.0,17.0,37,0.00,,,0.00,682.00,VWS V14.01,2013-06-03 15:44:00,
2013-06-03 09:49:00,59.2,31.6,29.72,North,-999,8.0,17.0,35,0.00,,,0.00,700.00,VWS V14.01,2013-06-03 15:49:00,
2013-06-03 09:54:00,59.1,31.5,29.72,North,-999,6.0,17.0,35,0.00,,,0.00,707.00,VWS V14.01,2013-06-03 15:54:00,
2013-06-03 09:59:00,59.0,32.8,29.72,North,-999,9.0,12.0,37,0.00,,,0.00,728.00,VWS V14.01,2013-06-03 15:59:00,
2013-06-03 10:04:00,59.2,33.0,29.72,North,-999,5.0,12.0,37,0.00,,,0.00,763.00,VWS V14.01,2013-06-03 16:04:00,
2013-06-03 10:09:00,59.8,32.8,29.72,North,-999,7.0,12.0,36,0.00,,,0.00,816.00,VWS V14.01,2013-06-03 16:09:00,
2013-06-03 10:14:00,60.3,33.3,29.72,North,-999,12.0,13.0,36,0.00,,,0.00,765.00,VWS V14.01,2013-06-03 16:14:00,
2013-06-03 10:19:00,59.8,32.1,29.73,North,-999,8.0,10.0,35,0.00,,,0.00,770.00,VWS V14.01,2013-06-03 16:19:00,
2013-06-03 10:24:00,59.9,32.9,29.72,North,-999,6.0,17.0,36,0.00,,,0.00,788.00,VWS V14.01,2013-06-03 16:24:00,
2013-06-03 10:29:00,60.5,32.7,29.73,North,-999,14.0,17.0,35,0.00,,,0.00,795.00,VWS V14.01,2013-06-03 16:29:00,
2013-06-03 10:34:00,60.5,32.0,29.72,North,-999,8.0,18.0,34,0.00,,,0.00,809.00,VWS V14.01,2013-06-03 16:34:00,
2013-06-03 10:39:00,61.0,33.2,29.73,North,-999,24.0,24.0,35,0.00,,,0.00,838.00,VWS V14.01,2013-06-03 16:39:00,
2013-06-03 10:44:00,61.3,32.7,29.74,North,-999,29.0,30.0,34,0.00,,,0.00,860.00,VWS V14.01,2013-06-03 16:44:00,
2013-06-03 10:49:00,61.1,31.8,29.73,North,-999,22.0,24.0,33,0.00,,,0.00,858.00,VWS V14.01,2013-06-03 16:49:00,
2013-06-03 10:53:00,61.3,31.2,29.73,North,-999,18.0,27.0,32,0.00,,,0.00,849.00,VWS V14.01,2013-06-03 16:53:00,
2013-06-03 10:58:00,61.8,31.6,29.73,North,-999,24.0,26.0,32,0.00,,,0.00,858.00,VWS V14.01,2013-06-03 16:58:00,
2013-06-03 11:03:00,61.4,31.3,29.73,North,-999,24.0,31.0,32,0.00,,,0.00,870.00,VWS V14.01,2013-06-03 17:03:00,
2013-06-03 11:08:00,61.2,30.4,29.73,North,-999,19.0,22.0,31,0.00,,,0.00,881.00,VWS V14.01,2013-06-03 17:08:00,
2013-06-03 11:13:00,61.6,30.7,29.73,North,-999,22.0,28.0,31,0.00,,,0.00,891.00,VWS V14.01,2013-06-03 17:13:00,
2013-06-03 11:18:00,63.4,33.0,29.73,North,-999,23.0,27.0,32,0.00,,,0.00,921.00,VWS V14.01,2013-06-03 17:18:00,
2013-06-03 11:23:00,62.6,30.8,29.74,North,-999,20.0,32.0,30,0.00,,,0.00,923.00,VWS V14.01,2013-06-03 17:23:00,
2013-06-03 11:28:00,62.3,30.5,29.74,North,-999,20.0,29.0,30,0.00,,,0.00,940.00,VWS V14.01,2013-06-03 17:28:00,
2013-06-03 11:33:00,62.3,29.7,29.73,North,-999,12.0,29.0,29,0.00,,,0.00,290.00,VWS V14.01,2013-06-03 17:33:00,
2013-06-03 11:38:00,63.1,30.4,29.73,North,-999,15.0,15.0,29,0.00,,,0.00,1069.00,VWS V14.01,2013-06-03 17:38:00,
2013-06-03 11:43:00,62.6,29.9,29.73,North,-999,18.0,24.0,29,0.00,,,0.00,981.00,VWS V14.01,2013-06-03 17:43:00,
2013-06-03 11:48:00,63.6,30.8,29.74,North,-999,24.0,31.0,29,0.00,,,0.00,1092.00,VWS V14.01,2013-06-03 17:48:00,
2013-06-03 11:53:00,63.3,31.4,29.74,North,-999,22.0,35.0,30,0.00,,,0.00,1030.00,VWS V14.01,2013-06-03 17:53:00,
2013-06-03 11:58:00,63.2,31.3,29.74,North,-999,27.0,28.0,30,0.00,,,0.00,369.00,VWS V14.01,2013-06-03 17:58:00,
2013-06-03 12:03:00,62.7,31.6,29.74,North,-999,19.0,32.0,31,0.00,,,0.00,260.00,VWS V14.01,2013-06-03 18:03:00,
2013-06-03 12:08:00,62.9,32.6,29.73,North,-999,30.0,35.0,32,0.00,,,0.00,1025.00,VWS V14.01,2013-06-03 18:08:00,
2013-06-03 12:13:00,63.0,32.7,29.74,North,-999,31.0,35.0,32,0.00,,,0.00,1025.00,VWS V14.01,2013-06-03 18:13:00,
2013-06-03 12:18:00,64.0,32.8,29.74,North,-999,34.0,40.0,31,0.00,,,0.00,1032.00,VWS V14.01,2013-06-03 18:18:00,
2013-06-03 12:23:00,63.3,31.4,29.74,North,-999,16.0,40.0,30,0.00,,,0.00,1037.00,VWS V14.01,2013-06-03 18:23:00,
2013-06-03 12:28:00,63.1,31.2,29.74,North,-999,23.0,30.0,30,0.00,,,0.00,1004.00,VWS V14.01,2013-06-03 18:28:00,
2013-06-03 12:33:00,63.3,30.5,29.74,North,-999,18.0,32.0,29,0.00,,,0.00,1023.00,VWS V14.01,2013-06-03 18:33:00,
2013-06-03 12:38:00,63.4,31.5,29.74,North,-999,24.0,27.0,30,0.00,,,0.00,1028.00,VWS V14.01,2013-06-03 18:38:00,
2013-06-03 12:43:00,63.4,30.6,29.74,North,-999,23.0,33.0,29,0.00,,,0.00,1055.00,VWS V14.01,2013-06-03 18:43:00,
2013-06-03 12:48:00,64.0,33.6,29.74,North,-999,23.0,25.0,32,0.00,,,0.00,1116.00,VWS V14.01,2013-06-03 18:48:00,
2013-06-03 12:53:00,64.6,31.6,29.74,North,-999,19.0,26.0,29,0.00,,,0.00,1123.00,VWS V14.01,2013-06-03 18:53:00,
2013-06-03 12:58:00,64.1,31.2,29.74,North,-999,25.0,25.0,29,0.00,,,0.00,1065.00,VWS V14.01,2013-06-03 18:58:00,
2013-06-03 13:03:00,63.8,31.8,29.74,North,-999,24.0,28.0,30,0.00,,,0.00,1069.00,VWS V14.01,2013-06-03 19:03:00,
2013-06-03 13:08:00,64.3,31.4,29.74,North,-999,18.0,24.0,29,0.00,,,0.00,1051.00,VWS V14.01,2013-06-03 19:08:00,
2013-06-03 13:13:00,64.3,30.5,29.74,North,-999,18.0,31.0,28,0.00,,,0.00,972.00,VWS V14.01,2013-06-03 19:13:00,
2013-06-03 13:18:00,64.7,32.6,29.74,North,-999,19.0,25.0,30,0.00,,,0.00,1021.00,VWS V14.01,2013-06-03 19:18:00,
2013-06-03 13:23:00,64.4,31.5,29.74,North,-999,30.0,33.0,29,0.00,,,0.00,1035.00,VWS V14.01,2013-06-03 19:23:00,
2013-06-03 13:28:00,64.9,31.9,29.74,North,-999,24.0,30.0,29,0.00,,,0.00,1027.00,VWS V14.01,2013-06-03 19:28:00,
2013-06-03 13:33:00,64.2,32.2,29.74,North,-999,15.0,30.0,30,0.00,,,0.00,1009.00,VWS V14.01,2013-06-03 19:33:00,
2013-06-03 13:38:00,65.2,31.3,29.74,North,-999,15.0,21.0,28,0.00,,,0.00,1002.00,VWS V14.01,2013-06-03 19:38:00,
2013-06-03 13:43:00,65.2,31.3,29.74,North,-999,17.0,33.0,28,0.00,,,0.00,236.00,VWS V14.01,2013-06-03 19:43:00,
2013-06-03 13:48:00,64.5,31.6,29.74,North,-999,16.0,22.0,29,0.00,,,0.00,1046.00,VWS V14.01,2013-06-03 19:48:00,
2013-06-03 13:53:00,65.0,30.2,29.74,North,-999,18.0,33.0,27,0.00,,,0.00,990.00,VWS V14.01,2013-06-03 19:53:00,
2013-06-03 13:58:00,65.3,31.4,29.75,North,-999,16.0,19.0,28,0.00,,,0.00,986.00,VWS V14.01,2013-06-03 19:58:00,
2013-06-03 14:03:00,65.7,33.5,29.75,North,-999,19.0,24.0,30,0.00,,,0.00,984.00,VWS V14.01,2013-06-03 20:03:00,
2013-06-03 14:08:00,66.1,31.2,29.75,North,-999,18.0,21.0,27,0.00,,,0.00,981.00,VWS V14.01,2013-06-03 20:08:00,
2013-06-03 14:13:00,66.4,30.5,29.75,North,-999,22.0,26.0,26,0.00,,,0.00,977.00,VWS V14.01,2013-06-03 20:13:00,
2013-06-03 14:18:00,66.6,32.5,29.75,North,-999,14.0,24.0,28,0.00,,,0.00,972.00,VWS V14.01,2013-06-03 20:18:00,
2013-06-03 14:23:00,65.7,31.7,29.75,North,-999,15.0,25.0,28,0.00,,,0.00,970.00,VWS V14.01,2013-06-03 20:23:00,
2013-06-03 14:28:00,66.2,33.0,29.75,North,-999,28.0,31.0,29,0.00,,,0.00,969.00,VWS V14.01,2013-06-03 20:28:00,
2013-06-03 14:33:00,65.8,31.8,29.75,North,-999,25.0,31.0,28,0.00,,,0.00,991.00,VWS V14.01,2013-06-03 20:33:00,
2013-06-03 14:38:00,66.3,32.2,29.75,North,-999,23.0,23.0,28,0.00,,,0.00,1002.00,VWS V14.01,2013-06-03 20:38:00,
2013-06-03 14:43:00,66.7,34.3,29.75,North,-999,22.0,34.0,30,0.00,,,0.00,977.00,VWS V14.01,2013-06-03 20:43:00,
2013-06-03 14:48:00,66.7,32.6,29.75,North,-999,33.0,35.0,28,0.00,,,0.00,1000.00,VWS V14.01,2013-06-03 20:48:00,
2013-06-03 14:53:00,66.1,32.1,29.75,North,-999,18.0,38.0,28,0.00,,,0.00,179.00,VWS V14.01,2013-06-03 20:53:00,
2013-06-03 14:58:00,66.8,33.5,29.76,North,-999,28.0,31.0,29,0.00,,,0.00,951.00,VWS V14.01,2013-06-03 20:58:00,
2013-06-03 15:03:00,66.4,32.3,29.76,North,-999,25.0,36.0,28,0.00,,,0.00,930.00,VWS V14.01,2013-06-03 21:03:00,
2013-06-03 15:08:00,66.7,33.5,29.76,North,-999,26.0,32.0,29,0.00,,,0.00,926.00,VWS V14.01,2013-06-03 21:08:00,
2013-06-03 15:13:00,66.9,32.8,29.76,North,-999,28.0,40.0,28,0.00,,,0.00,923.00,VWS V14.01,2013-06-03 21:13:00,
2013-06-03 15:18:00,66.8,33.5,29.76,North,-999,28.0,31.0,29,0.00,,,0.00,962.00,VWS V14.01,2013-06-03 21:18:00,
2013-06-03 15:23:00,68.0,34.6,29.76,North,-999,32.0,38.0,29,0.00,,,0.00,974.00,VWS V14.01,2013-06-03 21:23:00,
2013-06-03 15:28:00,67.2,33.9,29.76,North,-999,37.0,37.0,29,0.00,,,0.00,940.00,VWS V14.01,2013-06-03 21:28:00,
2013-06-03 15:33:00,66.5,34.1,29.77,North,-999,23.0,37.0,30,0.00,,,0.00,1013.00,VWS V14.01,2013-06-03 21:33:00,
2013-06-03 15:38:00,67.2,33.9,29.76,North,-999,21.0,23.0,29,0.00,,,0.00,983.00,VWS V14.01,2013-06-03 21:38:00,
2013-06-03 15:43:00,67.7,34.3,29.76,North,-999,26.0,32.0,29,0.00,,,0.00,909.00,VWS V14.01,2013-06-03 21:43:00,
2013-06-03 15:48:00,66.6,32.5,29.77,North,-999,29.0,29.0,28,0.00,,,0.00,912.00,VWS V14.01,2013-06-03 21:48:00,
2013-06-03 15:53:00,66.9,33.6,29.77,North,-999,32.0,34.0,29,0.00,,,0.00,918.00,VWS V14.01,2013-06-03 21:53:00,
2013-06-03 15:58:00,66.3,33.1,29.77,North,-999,24.0,30.0,29,0.00,,,0.00,969.00,VWS V14.01,2013-06-03 21:58:00,
2013-06-03 16:03:00,66.3,33.1,29.77,North,-999,18.0,33.0,29,0.00,,,0.00,962.00,VWS V14.01,2013-06-03 22:03:00,
2013-06-03 16:08:00,65.5,34.1,29.77,North,-999,17.0,21.0,31,0.00,,,0.00,849.00,VWS V14.01,2013-06-03 22:08:00,
2013-06-03 16:13:00,66.3,34.0,29.77,North,-999,15.0,26.0,30,0.00,,,0.00,963.00,VWS V14.01,2013-06-03 22:13:00,
2013-06-03 16:18:00,67.1,32.9,29.77,North,-999,19.0,20.0,28,0.00,,,0.00,951.00,VWS V14.01,2013-06-03 22:18:00,
2013-06-03 16:22:00,67.1,32.9,29.77,North,-999,21.0,29.0,28,0.00,,,0.00,1039.00,VWS V14.01,2013-06-03 22:22:00,
2013-06-03 16:27:00,67.5,33.3,29.77,North,-999,19.0,20.0,28,0.00,,,0.00,1056.00,VWS V14.01,2013-06-03 22:27:00,
2013-06-03 16:32:00,66.7,32.6,29.77,North,-999,17.0,29.0,28,0.00,,,0.00,329.00,VWS V14.01,2013-06-03 22:32:00,
2013-06-03 16:37:00,66.7,33.5,29.77,North,-999,25.0,25.0,29,0.00,,,0.00,954.00,VWS V14.01,2013-06-03 22:37:00,
2013-06-03 16:42:00,67.6,33.4,29.77,North,-999,16.0,26.0,28,0.00,,,0.00,947.00,VWS V14.01,2013-06-03 22:42:00,
2013-06-03 16:47:00,67.5,33.3,29.77,North,-999,21.0,26.0,28,0.00,,,0.00,933.00,VWS V14.01,2013-06-03 22:47:00,
2013-06-03 16:52:00,68.0,32.8,29.77,North,-999,25.0,31.0,27,0.00,,,0.00,311.00,VWS V14.01,2013-06-03 22:52:00,
2013-06-03 16:57:00,67.6,32.5,29.77,North,-999,27.0,31.0,27,0.00,,,0.00,445.00,VWS V14.01,2013-06-03 22:57:00,
2013-06-03 17:02:00,67.4,32.3,29.78,North,-999,15.0,33.0,27,0.00,,,0.00,290.00,VWS V14.01,2013-06-03 23:02:00,
2013-06-03 17:07:00,66.1,36.2,29.79,North,-999,23.0,33.0,33,0.00,,,0.00,176.00,VWS V14.01,2013-06-03 23:07:00,
2013-06-03 17:12:00,64.0,37.9,29.80,North,-999,19.0,29.0,38,0.00,,,0.00,135.00,VWS V14.01,2013-06-03 23:12:00,
2013-06-03 17:17:00,61.9,39.2,29.80,North,-999,20.0,30.0,43,0.00,,,0.00,132.00,VWS V14.01,2013-06-03 23:17:00,
2013-06-03 17:22:00,60.4,40.1,29.80,North,-999,20.0,30.0,47,0.00,,,0.00,267.00,VWS V14.01,2013-06-03 23:22:00,
2013-06-03 17:27:00,60.5,41.8,29.80,North,-999,13.0,30.0,50,0.00,,,0.00,316.00,VWS V14.01,2013-06-03 23:27:00,
2013-06-03 17:32:00,60.0,40.8,29.80,North,-999,23.0,29.0,49,0.00,,,0.00,162.00,VWS V14.01,2013-06-03 23:32:00,
2013-06-03 17:37:00,59.3,40.7,29.80,North,-999,15.0,31.0,50,0.00,,,0.00,167.00,VWS V14.01,2013-06-03 23:37:00,
2013-06-03 17:42:00,59.1,40.5,29.81,North,-999,15.0,28.0,50,0.00,,,0.00,167.00,VWS V14.01,2013-06-03 23:42:00,
2013-06-03 17:47:00,59.1,40.5,29.80,North,-999,17.0,28.0,50,0.00,,,0.00,283.00,VWS V14.01,2013-06-03 23:47:00,
2013-06-03 17:52:00,59.4,40.2,29.81,North,-999,9.0,26.0,49,0.00,,,0.00,323.00,VWS V14.01,2013-06-03 23:52:00,
2013-06-03 17:57:00,59.7,39.5,29.81,North,-999,12.0,26.0,47,0.00,,,0.00,192.00,VWS V14.01,2013-06-03 23:57:00,
2013-06-03 18:02:00,59.5,40.3,29.82,North,-999,10.0,23.0,49,0.00,,,0.00,174.00,VWS V14.01,2013-06-04 00:02:00,
2013-06-03 18:07:00,59.6,40.4,29.82,North,-999,21.0,24.0,49,0.00,,,0.00,265.00,VWS V14.01,2013-06-04 00:07:00,
2013-06-03 18:12:00,59.5,40.9,29.82,North,-999,19.0,32.0,50,0.00,,,0.00,608.00,VWS V14.01,2013-06-04 00:12:00,
2013-06-03 18:17:00,59.5,40.9,29.82,North,-999,24.0,32.0,50,0.00,,,0.00,513.00,VWS V14.01,2013-06-04 00:17:00,
2013-06-03 18:22:00,59.2,41.6,29.82,North,-999,23.0,33.0,52,0.00,,,0.00,418.00,VWS V14.01,2013-06-04 00:22:00,
2013-06-03 18:27:00,59.0,40.9,29.82,North,-999,21.0,33.0,51,0.00,,,0.00,399.00,VWS V14.01,2013-06-04 00:27:00,
2013-06-03 18:32:00,59.0,41.9,29.82,North,-999,29.0,29.0,53,0.00,,,0.00,380.00,VWS V14.01,2013-06-04 00:32:00,
2013-06-03 18:37:00,58.4,41.3,29.83,North,-999,14.0,32.0,53,0.00,,,0.00,360.00,VWS V14.01,2013-06-04 00:37:00,
2013-06-03 18:42:00,58.2,41.7,29.83,North,-999,20.0,28.0,54,0.00,,,0.00,415.00,VWS V14.01,2013-06-04 00:42:00,
2013-06-03 18:47:00,58.2,41.7,29.83,North,-999,24.0,28.0,54,0.00,,,0.00,353.00,VWS V14.01,2013-06-04 00:47:00,
2013-06-03 18:52:00,58.0,41.9,29.84,North,-999,15.0,27.0,55,0.00,,,0.00,332.00,VWS V14.01,2013-06-04 00:52:00,
2013-06-03 18:57:00,57.6,41.1,29.84,North,-999,19.0,30.0,54,0.00,,,0.00,309.00,VWS V14.01,2013-06-04 00:57:00,
2013-06-03 19:02:00,57.5,41.5,29.84,North,-999,24.0,33.0,55,0.00,,,0.00,192.00,VWS V14.01,2013-06-04 01:02:00,
2013-06-03 19:07:00,57.0,41.5,29.84,North,-999,18.0,33.0,56,0.00,,,0.00,251.00,VWS V14.01,2013-06-04 01:07:00,
2013-06-03 19:12:00,57.0,41.5,29.84,North,-999,25.0,28.0,56,0.00,,,0.00,204.00,VWS V14.01,2013-06-04 01:12:00,
2013-06-03 19:17:00,56.8,41.3,29.85,North,-999,16.0,28.0,56,0.00,,,0.00,193.00,VWS V14.01,2013-06-04 01:17:00,
2013-06-03 19:22:00,56.8,41.8,29.85,North,-999,23.0,30.0,57,0.00,,,0.00,179.00,VWS V14.01,2013-06-04 01:22:00,
2013-06-03 19:27:00,56.6,41.6,29.85,North,-999,16.0,30.0,57,0.00,,,0.00,179.00,VWS V14.01,2013-06-04 01:27:00,
2013-06-03 19:32:00,56.0,41.0,29.86,North,-999,15.0,23.0,57,0.00,,,0.00,32.00,VWS V14.01,2013-06-04 01:32:00,
2013-06-03 19:37:00,55.5,41.4,29.86,North,-999,16.0,26.0,59,0.00,,,0.00,30.00,VWS V14.01,2013-06-04 01:37:00,
2013-06-03 19:42:00,55.1,41.5,29.86,North,-999,14.0,24.0,60,0.00,,,0.00,32.00,VWS V14.01,2013-06-04 01:42:00,
2013-06-03 19:47:00,54.9,41.7,29.87,North,-999,16.0,24.0,61,0.00,,,0.00,37.00,VWS V14.01,2013-06-04 01:47:00,
2013-06-03 19:52:00,54.8,42.0,29.87,North,-999,15.0,21.0,62,0.00,,,0.00,47.00,VWS V14.01,2013-06-04 01:52:00,
2013-06-03 19:57:00,54.9,42.1,29.86,North,-999,14.0,21.0,62,0.00,,,0.00,70.00,VWS V14.01,2013-06-04 01:57:00,
2013-06-03 20:02:00,55.1,41.9,29.87,North,-999,19.0,21.0,61,0.00,,,0.00,84.00,VWS V14.01,2013-06-04 02:02:00,
2013-06-03 20:07:00,55.3,42.5,29.87,North,-999,14.0,24.0,62,0.00,,,0.00,30.00,VWS V14.01,2013-06-04 02:07:00,
2013-06-03 20:12:00,55.0,42.2,29.87,North,-999,13.0,17.0,62,0.00,,,0.00,21.00,VWS V14.01,2013-06-04 02:12:00,
2013-06-03 20:17:00,54.3,41.2,29.87,North,-999,15.0,25.0,61,0.00,,,0.00,16.00,VWS V14.01,2013-06-04 02:17:00,
2013-06-03 20:22:00,53.9,41.2,29.87,North,-999,11.0,24.0,62,0.00,,,0.00,14.00,VWS V14.01,2013-06-04 02:22:00,
2013-06-03 20:27:00,53.5,41.6,29.88,North,-999,13.0,24.0,64,0.00,,,0.00,14.00,VWS V14.01,2013-06-04 02:27:00,
2013-06-03 20:32:00,53.0,41.2,29.88,North,-999,19.0,25.0,64,0.00,,,0.00,12.00,VWS V14.01,2013-06-04 02:32:00,
2013-06-03 20:37:00,52.5,40.3,29.88,North,-999,19.0,28.0,63,0.00,,,0.00,11.00,VWS V14.01,2013-06-04 02:37:00,
2013-06-03 20:42:00,52.1,39.9,29.88,North,-999,20.0,24.0,63,0.00,,,0.00,11.00,VWS V14.01,2013-06-04 02:42:00,
2013-06-03 20:47:00,51.9,39.3,29.88,North,-999,19.0,26.0,62,0.00,,,0.00,5.00,VWS V14.01,2013-06-04 02:47:00,
2013-06-03 20:52:00,51.5,38.1,29.89,North,-999,20.0,24.0,60,0.00,,,0.00,5.00,VWS V14.01,2013-06-04 02:52:00,
2013-06-03 20:57:00,51.2,37.8,29.89,North,-999,14.0,24.0,60,0.00,,,0.00,0.00,VWS V14.01,2013-06-04 02:57:00,
2013-06-03 21:02:00,51.0,37.2,29.89,North,-999,22.0,26.0,59,0.00,,,0.00,0.00,VWS V14.01,2013-06-04 03:02:00,
2013-06-03 21:07:00,50.9,37.1,29.90,North,-999,10.0,26.0,59,0.00,,,0.00,0.00,VWS V14.01,2013-06-04 03:07:00,
2013-06-03 21:12:00,50.7,36.9,29.89,North,-999,18.0,21.0,59,0.00,,,0.00,0.00,VWS V14.01,2013-06-04 03:12:00,
2013-06-03 21:17:00,50.6,37.2,29.89,North,-999,20.0,22.0,60,0.00,,,0.00,0.00,VWS V14.01,2013-06-04 03:17:00,
2013-06-03 21:22:00,50.5,37.6,29.90,North,-999,18.0,22.0,61,0.00,,,0.00,0.00,VWS V14.01,2013-06-04 03:22:00,
2013-06-03 21:27:00,50.3,37.4,29.90,North,-999,16.0,23.0,61,0.00,,,0.00,0.00,VWS V14.01,2013-06-04 03:27:00,
2013-06-03 21:32:00,50.3,37.8,29.90,North,-999,16.0,22.0,62,0.00,,,0.00,0.00,VWS V14.01,2013-06-04 03:32:00,
2013-06-03 21:37:00,50.2,38.1,29.90,North,-999,22.0,22.0,63,0.00,,,0.00,0.00,VWS V14.01,2013-06-04 03:37:00,
2013-06-03 21:42:00,50.0,38.3,29.91,North,-999,17.0,24.0,64,0.00,,,0.00,0.00,VWS V14.01,2013-06-04 03:42:00,
2013-06-03 21:47:00,49.7,38.0,29.91,North,-999,14.0,27.0,64,0.00,,,0.00,0.00,VWS V14.01,2013-06-04 03:47:00,
2013-06-03 21:52:00,49.4,37.8,29.91,North,-999,12.0,21.0,64,0.00,,,0.00,0.00,VWS V14.01,2013-06-04 03:52:00,
2013-06-03 21:57:00,49.1,37.5,29.91,North,-999,14.0,21.0,64,0.00,,,0.00,0.00,VWS V14.01,2013-06-04 03:57:00,
2013-06-03 22:01:00,49.0,37.4,29.91,North,-999,14.0,21.0,64,0.00,,,0.00,0.00,VWS V14.01,2013-06-04 04:01:00,
2013-06-03 22:06:00,48.9,37.7,29.91,North,-999,20.0,24.0,65,0.00,,,0.00,0.00,VWS V14.01,2013-06-04 04:06:00,
2013-06-03 22:11:00,48.8,37.6,29.91,North,-999,16.0,21.0,65,0.00,,,0.00,0.00,VWS V14.01,2013-06-04 04:11:00,
2013-06-03 22:16:00,48.6,37.4,29.91,North,-999,15.0,21.0,65,0.00,,,0.00,0.00,VWS V14.01,2013-06-04 04:16:00,
2013-06-03 22:21:00,48.4,37.6,29.91,North,-999,20.0,28.0,66,0.00,,,0.00,0.00,VWS V14.01,2013-06-04 04:21:00,
2013-06-03 22:26:00,48.3,37.5,29.91,North,-999,18.0,28.0,66,0.00,,,0.00,0.00,VWS V14.01,2013-06-04 04:26:00,
2013-06-03 22:31:00,48.2,38.5,29.91,North,-999,17.0,25.0,69,0.00,,,0.00,0.00,VWS V14.01,2013-06-04 04:31:00,
2013-06-03 22:36:00,48.0,37.2,29.92,North,-999,22.0,28.0,66,0.00,,,0.00,0.00,VWS V14.01,2013-06-04 04:36:00,
2013-06-03 22:41:00,47.8,37.0,29.92,North,-999,17.0,23.0,66,0.00,,,0.00,0.00,VWS V14.01,2013-06-04 04:41:00,
2013-06-03 22:46:00,47.7,37.3,29.92,North,-999,17.0,23.0,67,0.00,,,0.00,0.00,VWS V14.01,2013-06-04 04:46:00,
2013-06-03 22:51:00,47.7,37.3,29.92,North,-999,18.0,30.0,67,0.00,,,0.00,0.00,VWS V14.01,2013-06-04 04:51:00,
2013-06-03 22:56:00,47.6,37.2,29.92,North,-999,14.0,30.0,67,0.00,,,0.00,0.00,VWS V14.01,2013-06-04 04:56:00,
2013-06-03 23:01:00,47.4,37.0,29.92,North,-999,10.0,20.0,67,0.00,,,0.00,0.00,VWS V14.01,2013-06-04 05:01:00,
2013-06-03 23:06:00,47.4,37.0,29.92,North,-999,22.0,24.0,67,0.00,,,0.00,0.00,VWS V14.01,2013-06-04 05:06:00,
2013-06-03 23:11:00,47.3,36.9,29.92,North,-999,21.0,27.0,67,0.00,,,0.00,0.00,VWS V14.01,2013-06-04 05:11:00,
2013-06-03 23:16:00,47.2,36.8,29.93,North,-999,15.0,27.0,67,0.00,,,0.00,0.00,VWS V14.01,2013-06-04 05:16:00,
2013-06-03 23:21:00,47.0,37.0,29.93,North,-999,14.0,17.0,68,0.00,,,0.00,0.00,VWS V14.01,2013-06-04 05:21:00,
2013-06-03 23:26:00,46.9,36.9,29.93,North,-999,10.0,20.0,68,0.00,,,0.00,0.00,VWS V14.01,2013-06-04 05:26:00,
2013-06-03 23:30:00,46.9,37.3,29.93,North,-999,14.0,22.0,69,0.00,,,0.00,0.00,VWS V14.01,2013-06-04 05:30:00,
2013-06-03 23:35:00,47.0,37.0,29.94,North,-999,9.0,22.0,68,0.00,,,0.00,0.00,VWS V14.01,2013-06-04 05:35:00,
2013-06-03 23:40:00,46.9,36.9,29.94,North,-999,5.0,17.0,68,0.00,,,0.00,0.00,VWS V14.01,2013-06-04 05:40:00,
2013-06-03 23:45:00,46.7,36.7,29.94,North,-999,9.0,20.0,68,0.00,,,0.00,0.00,VWS V14.01,2013-06-04 05:45:00,
2013-06-03 23:50:00,46.5,36.5,29.95,North,-999,5.0,13.0,68,0.00,,,0.00,0.00,VWS V14.01,2013-06-04 05:50:00,
2013-06-03 23:55:00,46.3,36.3,29.95,North,-999,0.0,13.0,68,0.00,,,0.00,0.00,VWS V14.01,2013-06-04 05:55:00,